NATIONAL KEY DEER NWR FL US current weather conditions

sailwx.info

Wind from 136 at 0 knots gusting 6

Air temperature 27.2° C
Dewpoint 24.5° C

Last reported at 2017-Aug-23 20:38 UTC.
Time now 2017-Aug-23 21:32 UTC

Location: N 24°43' W 081°23'.
View on Google Maps.

See reports from other nearby stations

  
Tides and Currents Weather Stations Pressure Air Temp Water Temp Dewpoint Dewpoint Depression Visibility Wind Speed Wind Dir Waves Ship Positions
date/time (UTC)wind fromknots sea level pressurealtimeterstation pressurevisibilityair tempwater tempwave heightnotes
2017-Aug-23 20:38 136 0 gusting 6 27.2
2017-Aug-23 19:38 168 1 gusting 6 26.1
2017-Aug-23 18:38 185 6 gusting 13 26.7
2017-Aug-23 17:38 27.2
2017-Aug-23 16:38 179 4 gusting 8 28.3
2017-Aug-23 15:38 053 1 gusting 10 31.1
2017-Aug-23 14:38 184 2 gusting 5 30.6
2017-Aug-23 13:38 187 2 gusting 6 31.1
2017-Aug-23 12:38 171 1 gusting 5 29.4
2017-Aug-23 11:38 25.6
2017-Aug-23 10:38 26.1
2017-Aug-23 09:38 134 0 gusting 5 26.7
2017-Aug-23 08:38 25.6
2017-Aug-23 07:38 26.1
2017-Aug-23 06:38 26.7
2017-Aug-23 05:38 26.7
2017-Aug-23 04:38 27.2
2017-Aug-23 03:38 27.2
2017-Aug-23 02:38 082 3 gusting 6 28.3
2017-Aug-23 01:38 175 1 gusting 3 28.3
2017-Aug-23 00:38 173 1 gusting 5 28.9
2017-Aug-22 23:38 141 3 gusting 5 30.0
2017-Aug-22 22:38 107 1 gusting 7 31.1
2017-Aug-22 21:38 096 3 gusting 8 33.3
2017-Aug-22 20:38 075 5 gusting 7 32.2
2017-Aug-22 19:38 097 5 gusting 8 33.3
2017-Aug-22 18:38 035 5 gusting 9 32.8
2017-Aug-22 17:38 049 5 gusting 8 33.3
2017-Aug-22 16:38 049 4 gusting 9 31.7
2017-Aug-22 15:38 047 5 gusting 8 32.8
2017-Aug-22 13:38 055 4 gusting 8 31.1
2017-Aug-22 12:38 051 4 gusting 10 29.4
2017-Aug-22 11:38 053 3 gusting 6 27.8
2017-Aug-22 10:38 054 5 gusting 11 27.8
2017-Aug-22 09:38 048 4 gusting 7 28.3
2017-Aug-22 08:38 064 5 gusting 10 28.3
2017-Aug-22 07:38 055 6 gusting 14 28.9
2017-Aug-22 06:38 054 7 gusting 18 28.9
2017-Aug-22 05:38 048 7 gusting 15 29.4
2017-Aug-22 04:38 054 6 gusting 11 28.3
2017-Aug-22 03:38 061 3 gusting 5 28.3
2017-Aug-22 02:38 166 1 gusting 6 28.3
2017-Aug-22 01:38 098 1 gusting 6 28.3
2017-Aug-22 00:38 128 2 gusting 12 28.9
2017-Aug-21 23:38 084 5 gusting 12 30.0
2017-Aug-21 22:38 090 5 gusting 13 30.6
2017-Aug-21 21:38 072 6 gusting 13 31.7